Terminal Aerodrome Forecast
Issued by NWS Dallas/Fort Worth, TX

Home | Current Version | Previous Version | Text Only | Print | Product List | Glossary On
Versions: 1 2 3 4 5 6 7 8 9 10 11 12 13 14 15 16 17 18 19 20 21 22 23 24 25 26 27 28 29 30 31 32 33 34
000
FTUS44 KFWD 210900 AAB
TAFACT
TAF AMD
KACT 210909Z 2109/2206 14006KT P6SM SCT009 OVC018
     FM211100 15003KT 5SM BR BKN008 OVC015
      TEMPO 2112/2116 3SM BR OVC005
     FM211600 17007KT 5SM BR OVC010
     FM211800 18010KT P6SM OVC015
     FM212100 16008KT P6SM BKN025=

USA.gov is the U.S. government's official web portal to all federal, state and local government web resources and services.